| time (UTC) | temp C | wind direction | speed KPH | gust KPH | rain 1hr cm | rain 24hr cm | rain mn cm | humidity % | barometer mb |
| 20260506080933 | 8 | 180 | 4.8 | 9.7 | 0.00 | 0.00 | 0.00 | 99 | 1018.1 |
| 20260506073038 | 8 | 180 | 3.2 | 9.7 | 0.00 | 0.00 | 0.00 | 99 | 1017.9 |
| 20260506072035 | 8 | 180 | 4.8 | 11.3 | 0.00 | 0.00 | 0.00 | 99 | 1018.0 |
| 20260506071036 | 8 | 180 | 4.8 | 8.0 | 0.00 | 0.00 | 0.00 | 99 | 1017.9 |
| 20260506061835 | 8 | 178 | 9.7 | 16.1 | 0.00 | 0.00 | 0.00 | 99 | 1017.8 |
| 20260506060933 | 8 | 180 | 4.8 | 8.0 | 0.00 | 0.00 | 0.00 | 99 | 1017.8 |
| 20260506051034 | 8 | 180 | 1.6 | 6.4 | 0.00 | 0.00 | 0.00 | 99 | 1017.7 |
| 20260506045035 | 8 | 180 | 8.0 | 12.9 | 0.00 | 0.00 | 0.00 | 99 | 1017.5 |
| 20260506044034 | 8 | 180 | 8.0 | 14.5 | 0.00 | 0.00 | 0.00 | 99 | 1017.5 |
| 20260506043036 | 8 | 180 | 8.0 | 12.9 | 0.00 | 0.00 | 0.00 | 99 | 1017.6 |
| 20260506042034 | 8 | 174 | 6.4 | 9.7 | 0.00 | 0.00 | 0.00 | 99 | 1017.5 |
| 20260506041036 | 8 | 169 | 3.2 | 6.4 | 0.00 | 0.00 | 0.00 | 99 | 1017.6 |
| 20260506040044 | 8 | 178 | 4.8 | 9.7 | 0.00 | 0.00 | 0.00 | 99 | 1017.6 |
| 20260506035034 | 8 | 180 | 4.8 | 11.3 | 0.00 | 0.00 | 0.00 | 99 | 1017.5 |
| 20260506034934 | 8 | 180 | 6.4 | 11.3 | 0.00 | 0.00 | 0.00 | 99 | 1017.6 |
| 20260506032935 | 8 | 166 | 3.2 | 8.0 | 0.00 | 0.00 | 0.00 | 99 | 1017.6 |
| 20260506032032 | 8 | 164 | 3.2 | 6.4 | 0.00 | 0.00 | 0.00 | 99 | 1017.7 |
| 20260506031034 | 8 | 180 | 8.0 | 16.1 | 0.00 | 0.00 | 0.00 | 99 | 1017.8 |
| 20260506030038 | 8 | 169 | 3.2 | 8.0 | 0.00 | 0.00 | 0.00 | 99 | 1017.8 |
| 20260506025034 | 8 | 180 | 4.8 | 9.7 | 0.00 | 0.00 | 0.00 | 99 | 1017.9 |
| 20260506024034 | 8 | 172 | 4.8 | 8.0 | 0.00 | 0.00 | 0.00 | 99 | 1017.9 |
| 20260506023133 | 8 | 180 | 4.8 | 11.3 | 0.00 | 0.00 | 0.00 | 99 | 1017.9 |
| 20260506022134 | 8 | 180 | 4.8 | 11.3 | 0.00 | 0.00 | 0.00 | 99 | 1018.0 |
| 20260506021133 | 8 | 180 | 6.4 | 12.9 | 0.00 | 0.00 | 0.00 | 99 | 1018.0 |
| 20260506015233 | 8 | 180 | 4.8 | 8.0 | 0.00 | 0.00 | 0.00 | 99 | 1018.0 |
| 20260506014235 | 8 | 180 | 8.0 | 16.1 | 0.00 | 0.00 | 0.00 | 99 | 1018.3 |
| 20260506012234 | 8 | 176 | 4.8 | 11.3 | 0.00 | 0.00 | 0.00 | 99 | 1018.2 |
| 20260506011235 | 8 | 180 | 6.4 | 8.0 | 0.00 | 0.00 | 0.00 | 99 | 1018.3 |
| 20260506011136 | 8 | 178 | 3.2 | 9.7 | 0.00 | 0.00 | 0.00 | 99 | 1018.3 |
| 20260506010135 | 8 | 180 | 8.0 | 12.9 | 0.00 | 0.00 | 0.00 | 99 | 1018.4 |
| 20260506005136 | 8 | 180 | 4.8 | 8.0 | 0.00 | 0.00 | 0.00 | 99 | 1018.4 |
| 20260506004133 | 8 | 180 | 6.4 | 11.3 | 0.00 | 0.00 | 0.00 | 99 | 1018.6 |
| 20260506003135 | 8 | 180 | 4.8 | 9.7 | 0.00 | 0.00 | 0.00 | 99 | 1018.6 |
| 20260506002232 | 8 | 180 | 4.8 | 8.0 | 0.00 | 0.00 | 0.00 | 99 | 1018.7 |
| 20260506001233 | 8 | 178 | 6.4 | 11.3 | 0.00 | 0.00 | 0.00 | 98 | 1018.8 |
| 20260506000235 | 8 | 180 | 6.4 | 11.3 | 0.00 | 0.00 | 0.00 | 98 | 1018.8 |
| 20260505235234 | 8 | 180 | 6.4 | 9.7 | 0.00 | 0.00 | 0.00 | 98 | 1018.9 |
| 20260505235135 | 8 | 178 | 6.4 | 11.3 | 0.00 | 0.00 | 0.00 | 98 | 1018.9 |
| 20260505233135 | 8 | 180 | 6.4 | 11.3 | 0.00 | 0.00 | 0.00 | 98 | 1019.1 |
| 20260505232134 | 8 | 180 | 6.4 | 9.7 | 0.00 | 0.00 | 0.00 | 98 | 1019.1 |
| 20260505231135 | 8 | 166 | 6.4 | 11.3 | 0.00 | 0.00 | 0.00 | 98 | 1019.1 |
| 20260505230233 | 8 | 165 | 3.2 | 8.0 | 0.00 | 0.00 | 0.00 | 98 | 1019.2 |
| 20260505225236 | 8 | 180 | 6.4 | 14.5 | 0.00 | 0.00 | 0.00 | 98 | 1019.4 |
| 20260505224234 | 9 | 176 | 4.8 | 11.3 | 0.00 | 0.00 | 0.00 | 98 | 1019.5 |
| 20260505223233 | 9 | 178 | 4.8 | 11.3 | 0.00 | 0.00 | 0.00 | 98 | 1019.3 |
| 20260505221334 | 9 | 180 | 8.0 | 12.9 | 0.00 | 0.00 | 0.00 | 98 | 1019.4 |
| 20260505221235 | 9 | 169 | 4.8 | 12.9 | 0.00 | 0.00 | 0.00 | 98 | 1019.5 |
| 20260505220234 | 9 | 180 | 6.4 | 11.3 | 0.00 | 0.00 | 0.00 | 98 | 1019.5 |
| 20260505214316 | 9 | 180 | 4.8 | 8.0 | 0.00 | 0.00 | 0.00 | 98 | 1019.7 |
| 20260505214214 | 9 | 180 | 6.4 | 11.3 | 0.00 | 0.00 | 0.00 | 98 | 1019.7 |
| 20260505213214 | 9 | 163 | 3.2 | 9.7 | 0.00 | 0.00 | 0.00 | 98 | 1019.6 |
| 20260505212216 | 9 | 172 | 3.2 | 4.8 | 0.00 | 0.00 | 0.00 | 98 | 1019.8 |
| 20260505212115 | 9 | 180 | 6.4 | 9.7 | 0.00 | 0.00 | 0.00 | 98 | 1019.7 |
| 20260505211114 | 9 | 180 | 4.8 | 11.3 | 0.00 | 0.00 | 0.00 | 98 | 1019.8 |
| 20260505210115 | 9 | 119 | 1.6 | 3.2 | 0.00 | 0.00 | 0.00 | 98 | 1019.9 |
| 20260505205116 | 9 | 180 | 4.8 | 8.0 | 0.00 | 0.00 | 0.00 | 98 | 1019.9 |
| 20260505204114 | 9 | 176 | 3.2 | 11.3 | 0.00 | 0.00 | 0.00 | 98 | 1019.9 |
| 20260505203114 | 9 | 180 | 3.2 | 6.4 | 0.00 | 0.00 | 0.00 | 98 | 1020.0 |
| 20260505202115 | 9 | 166 | 6.4 | 12.9 | 0.00 | 0.00 | 0.00 | 98 | 1020.0 |
| 20260505201114 | 9 | 180 | 6.4 | 11.3 | 0.00 | 0.00 | 0.00 | 98 | 1020.1 |
| 20260505194115 | 10 | 180 | 3.2 | 4.8 | 0.00 | 0.00 | 0.00 | 99 | 1019.8 |
| 20260505193213 | 10 | 180 | 4.8 | 8.0 | 0.00 | 0.00 | 0.00 | 99 | 1019.8 |
| 20260505192215 | 10 | 180 | 3.2 | 6.4 | 0.00 | 0.00 | 0.00 | 99 | 1019.9 |
| 20260505191016 | 10 | 180 | 1.6 | 3.2 | 0.00 | 0.00 | 0.00 | 98 | 1019.8 |
| 20260505185113 | 10 | 180 | 6.4 | 9.7 | 0.00 | 0.00 | 0.00 | 98 | 1019.5 |
| 20260505184116 | 10 | 151 | 3.2 | 4.8 | 0.00 | 0.00 | 0.00 | 98 | 1019.7 |
| 20260505183115 | 10 | 178 | 3.2 | 8.0 | 0.00 | 0.00 | 0.00 | 98 | 1019.7 |
| 20260505182214 | 10 | 109 | 1.6 | 9.7 | 0.00 | 0.00 | 0.00 | 98 | 1019.8 |
| 20260505182115 | 10 | 174 | 3.2 | 8.0 | 0.00 | 0.00 | 0.00 | 98 | 1019.7 |
| 20260505181214 | 10 | 172 | 1.6 | 4.8 | 0.00 | 0.00 | 0.00 | 98 | 1019.7 |
| 20260505181117 | 10 | 180 | 1.6 | 8.0 | 0.00 | 0.00 | 0.00 | 98 | 1019.7 |
| 20260505180116 | 10 | 151 | 3.2 | 8.0 | 0.00 | 0.00 | 0.00 | 98 | 1019.8 |
| 20260505175116 | 10 | 155 | 3.2 | 8.0 | 0.00 | 0.00 | 0.00 | 98 | 1019.8 |
| 20260505174214 | 10 | 180 | 4.8 | 11.3 | 0.00 | 0.00 | 0.00 | 98 | 1019.7 |
| 20260505173216 | 10 | 141 | 4.8 | 11.3 | 0.00 | 0.00 | 0.00 | 98 | 1019.8 |
| 20260505172216 | 10 | 169 | 4.8 | 8.0 | 0.00 | 0.00 | 0.00 | 98 | 1019.8 |
| 20260505172115 | 10 | 166 | 6.4 | 11.3 | 0.00 | 0.00 | 0.00 | 98 | 1019.9 |
| 20260505171130 | 10 | 144 | 1.6 | 4.8 | 0.00 | 0.00 | 0.00 | 98 | 1019.9 |
| 20260505164114 | 10 | 166 | 3.2 | 6.4 | 0.00 | 0.00 | 0.00 | 97 | 1019.9 |
| 20260505163116 | 10 | 164 | 6.4 | 12.9 | 0.00 | 0.00 | 0.00 | 97 | 1020.0 |
| 20260505162114 | 10 | 176 | 4.8 | 9.7 | 0.00 | 0.00 | 0.00 | 97 | 1020.0 |
| 20260505161115 | 10 | 180 | 6.4 | 12.9 | 0.00 | 0.00 | 0.00 | 97 | 1020.0 |
| 20260505160116 | 10 | 176 | 3.2 | 9.7 | 0.00 | 0.00 | 0.00 | 97 | 1020.1 |
| 20260505153115 | 10 | 180 | 3.2 | 8.0 | 0.00 | 0.00 | 0.00 | 97 | 1020.3 |
| 20260505152215 | 10 | 164 | 3.2 | 11.3 | 0.00 | 0.00 | 0.00 | 97 | 1020.3 |
| 20260505151214 | 10 | 151 | 1.6 | 4.8 | 0.00 | 0.00 | 0.00 | 97 | 1020.3 |
| 20260505140114 | 10 | 158 | 3.2 | 4.8 | 0.00 | 0.00 | 0.00 | 97 | 1020.7 |
| 20260505130215 | 9 | 180 | 6.4 | 9.7 | 0.00 | 0.00 | 0.00 | 98 | 1021.1 |
| 20260505124215 | 9 | 161 | 6.4 | 11.3 | 0.00 | 0.00 | 0.00 | 97 | 1021.2 |
| 20260505123313 | 9 | 174 | 6.4 | 11.3 | 0.00 | 0.00 | 0.00 | 97 | 1021.4 |
| 20260505122315 | 9 | 180 | 3.2 | 6.4 | 0.00 | 0.00 | 0.00 | 97 | 1021.4 |
| 20260505121314 | 9 | 180 | 3.2 | 9.7 | 0.00 | 0.00 | 0.00 | 97 | 1021.3 |
| 20260505121214 | 9 | 180 | 6.4 | 11.3 | 0.00 | 0.00 | 0.00 | 97 | 1021.4 |
| 20260505120214 | 9 | 129 | 3.2 | 8.0 | 0.00 | 0.00 | 0.00 | 97 | 1021.5 |
| 20260505115213 | 9 | 161 | 3.2 | 11.3 | 0.00 | 0.00 | 0.00 | 97 | 1021.3 |
| 20260505115113 | 9 | 172 | 6.4 | 12.9 | 0.00 | 0.00 | 0.00 | 97 | 1021.3 |
| 20260505114116 | 9 | 180 | 3.2 | 9.7 | 0.00 | 0.00 | 0.00 | 97 | 1021.5 |
| 20260505113115 | 9 | 172 | 3.2 | 6.4 | 0.00 | 0.00 | 0.00 | 97 | 1021.5 |
| 20260505111116 | 9 | 151 | 6.4 | 9.7 | 0.00 | 0.00 | 0.00 | 97 | 1021.5 |
| 20260505111015 | 9 | 151 | 6.4 | 16.1 | 0.00 | 0.00 | 0.00 | 97 | 1021.6 |
| 20260505102014 | 9 | 144 | 3.2 | 8.0 | 0.00 | 0.00 | 0.00 | 96 | 1021.7 |
| 20260505101016 | 9 | 164 | 3.2 | 6.4 | 0.00 | 0.00 | 0.00 | 96 | 1021.7 |
| 20260505100015 | 9 | 174 | 6.4 | 11.3 | 0.00 | 0.00 | 0.00 | 96 | 1021.8 |
| 20260505095014 | 9 | 161 | 3.2 | 8.0 | 0.00 | 0.00 | 0.00 | 96 | 1021.7 |
| 20260505094113 | 9 | 176 | 1.6 | 8.0 | 0.00 | 0.00 | 0.00 | 96 | 1021.8 |
| 20260505093114 | 8 | 148 | 4.8 | 9.7 | 0.00 | 0.00 | 0.00 | 97 | 1021.7 |
| 20260505093014 | 8 | 164 | 4.8 | 11.3 | 0.00 | 0.00 | 0.00 | 97 | 1021.7 |
| 20260505092014 | 8 | 172 | 4.8 | 11.3 | 0.00 | 0.00 | 0.00 | 97 | 1021.7 |
| 20260505091015 | 8 | 168 | 6.4 | 11.3 | 0.00 | 0.00 | 0.00 | 97 | 1021.8 |
| 20260505085113 | 8 | 180 | 8.0 | 12.9 | 0.00 | 0.00 | 0.00 | 97 | 1021.9 |
| 20260505084116 | 9 | 158 | 8.0 | 14.5 | 0.00 | 0.00 | 0.00 | 97 | 1021.8 |
| 20260505083116 | 9 | 174 | 3.2 | 9.7 | 0.00 | 0.00 | 0.00 | 97 | 1021.8 |
| 20260505082116 | 9 | 171 | 4.8 | 14.5 | 0.00 | 0.00 | 0.00 | 98 | 1021.9 |